Regional Weather Roundup
Issued by NWS

Home | Current Version | Previous Version | Text Only | Print | Product List | Glossary Off
Versions: 1 2 3 4 5 6 7 8 9 10 11 12 13 14 15 16 17 18 19 20 21 22 23 24 25 26 27 28 29 30 31 32 33 34 35 36 37 38 39 40 41 42 43 44 45 46 47 48 49 50

000
ASUS45 KTFX 260019
RWRMT
MONTANA HOURLY WEATHER ROUNDUP
NATIONAL WEATHER SERVICE GREAT FALLS MT
519 PM MST TUE NOV 25 2014

NOTE: "FAIR" INDICATES FEW OR NO CLOUDS BELOW 12000 FEET WITH NO
SIGNIFICANT WEATHER AND/OR OBSTRUCTIONS TO VISIBILITY.

* THESE STATIONS ARE NOT UNDER NWS QUALITY CONTROL. THEY DO NOT
   REPORT WEATHER SUCH AS PRECIPITATION OR FOG.

MTZ001>007-043-260100-
WEST OF THE DIVIDE
CITY           SKY/WX    TMP DP  RH WIND       PRES   REMARKS
KALISPELL      FOG       34  32  92 CALM      30.12R
MISSOULA       LGT RAIN  36  36 100 W9        30.18R WCI  29
BUTTE          LGT SNOW  30  28  92 W7        30.08R VSB 2 1/2 WCI  23
MULLAN PASS    LGT SNOW  27  25  92 CALM      30.09S VSB 1 1/4
* ESSEX        N/A       32  30  92 N/A        N/A
* EUREKA APT   CLOUDY    36  32  85 CALM      30.16R
* HAMILTON APT CLOUDY    32  32 100 NW3       30.15S VSB 3/4
* LIBBY APT    CLOUDY    36  34  92 CALM      30.16S
* LINCOLN      N/A       32  29  89 S5G10      N/A   WCI  27
* LOOKOUT PASS N/A       30  30 100 VRB4       N/A
* POLSON       N/A       34  34 100 S1         N/A
* RONAN APT    CLOUDY    37  32  82 SE6        N/A   WCI  32
* SEELEY LAKE  N/A       33  30  89 NW1        N/A
* THOMP F APT  CLOUDY    33  30  89 N/A        N/A
* YAAK HILL    N/A       35  33  92 N/A        N/A
$$

MTZ008-052>055-260100-
SOUTHWEST MONTANA
CITY           SKY/WX    TMP DP  RH WIND       PRES   REMARKS
BOZEMAN        LGT SNOW  32  30  92 S3        30.11R VSB 3/4
DILLON         CLOUDY    37  34  89 N3        30.04R
* W YELLOWSTON CLOUDY    29  27  92 SW4G13     N/A
* ENNIS APT    CLOUDY    34  32  92 N6         N/A   WCI  29
* THREE FORKS  CLOUDY    34  28  79 N/A        N/A
* BOULDER HILL N/A       28  25  89 NE11       N/A   WCI  18
* MONIDA PASS  N/A       29  29 100 SE7        N/A   WCI  22
* RAYNOLDS PAS N/A       34  26  73 SW11G16    N/A   WCI  26
* WHITEHALL    N/A       36  33  89 E2         N/A
* WISE RIVER   N/A       35  33  92 NW4G11     N/A
$$

MTZ009>010-012-014-046-048-049-054-260100-
EAST SLOPES AND CENTRAL MONTANA
CITY           SKY/WX    TMP DP  RH WIND       PRES   REMARKS
CUT BANK       CLOUDY    30  19  64 N3        30.11R
GREAT FALLS    CLOUDY    30  28  92 SW8       30.12R WCI  22
HELENA         LGT SNOW  34  32  92 CALM      30.12R VSB 2
MALMSTROM AFB  CLOUDY    34  23  64 W5        30.15R WCI  29
* CONRAD       CLOUDY    34  21  59 CALM       N/A
* DEARBORN     N/A       34  26  73 N/A        N/A
* EAST GLACIER N/A       27  20  75 SE3        N/A
* MONARCH      N/A       24  19  81 SW4        N/A
* PENDROY      N/A       30  20  66 E1         N/A
* ROGERS PASS  N/A       27  25  92 NW1        N/A
* SAINT MARY   N/A       31  19  61 N3         N/A
* SWEET GRASS  N/A       29  24  82 N8         N/A   WCI  21
* WHITE SULPH  N/A       27  24  88 NW5G10     N/A   WCI  21
$$

MTZ011-013-016-021-035-040-045-047-050-051-260100-
NORTH CENTRAL MONTANA
CITY           SKY/WX    TMP DP  RH WIND       PRES   REMARKS
HAVRE          MOCLDY    30  25  82 N6        30.11R WCI  24
LEWISTOWN      CLOUDY    30  25  82 W14       30.07R WCI  19
* N BAR RANCH  CLOUDY    28  23  81 NW18G28   30.04R WCI  15
* CHINOOK      MOCLDY    28  23  81 N5        30.12R WCI  22
* FORT BENTON  CLOUDY    36  21  54 W9        30.13R WCI  29
* CHESTER      N/A       32  22  67 NW11G18    N/A   WCI  23
* DENTON       N/A       32  23  69 W12G17     N/A   WCI  23
* GEYSER       N/A       28  24  85 SW17       N/A   WCI  16
* JUDITH GAP   N/A       27  21  78 NW24G34    N/A   WCI  12
* LOMA         N/A       36  22  57 W10G17     N/A   WCI  29
$$

MTZ017>020-022>027-061-062-260100-
NORTHEAST MONTANA
CITY           SKY/WX    TMP DP  RH WIND       PRES   REMARKS
GLASGOW        CLOUDY    27  21  78 N14       30.04R WCI  16
GLENDIVE       CLOUDY    30  25  82 N25G31    29.95R WCI  16
JORDAN         CLOUDY    30  25  82 NW18G29   30.01R WCI  18
SIDNEY         CLOUDY    27  21  78 N17G28    29.98R WCI  14
WOLF POINT     CLOUDY    28  21  75 N16       30.04R WCI  16
* BEAVER HILL  N/A       31  27  85 NW29G34    N/A   WCI  16
* CIRCLE       N/A       31  27  85 NW11G18    N/A   WCI  22
* LINDSAY DVD  N/A       29  26  89 NW20G32    N/A   WCI  16
* NAVAJO       N/A       21  18  88 N12G17     N/A   WCI   9
* PLENTYWOOD A PTCLDY    21  18  88 N/A       30.00R
* POPLAR APT   PTCLDY    27  21  78 N/A       30.01R
* SACO         N/A       27  21  78 NW12G19    N/A   WCI  16
$$

MTZ028>042-056>058-260100-
SOUTHCENTRAL AND SOUTHEAST MONTANA
CITY           SKY/WX    TMP DP  RH WIND       PRES   REMARKS
BAKER          CLOUDY    34  27  76 NW23G32   29.88R WCI  22
BILLINGS       CLOUDY    36  21  54 NW16      30.06R WCI  26
LIVINGSTON     LGT SNOW  32  28  85 NW15      30.09R VSB 1 1/4 WCI  22
MILES CITY     CLOUDY    34  25  70 NW26G33   29.94R WCI  21
* BIG TIMBER A CLOUDY    28  27  96 SE6       30.10R VSB 1/2  WCI  21
* FORSYTH APT  CLOUDY    36  25  64 NW13      29.99R WCI  27
* LAUREL APT   CLOUDY    34  21  59 NW6        N/A   WCI  29
* ALZADA       N/A       34  28  79 W13G22     N/A   WCI  25
* HYSHAM       N/A       35  17  48 NW11G21    N/A   WCI  27
* REED POINT   N/A       31  30  96 W4         N/A
* ROSCOE HILL  N/A       25  22  88 SE1        N/A
$$

REGIONAL REPORTS...DAKOTAS
CITY           SKY/WX    TMP DP  RH WIND       PRES   REMARKS
WILLISTON      CLOUDY    25  19  78 N23G29    29.96R WCI  10
DICKINSON      CLOUDY    34  28  79 NW23G32   29.77R WCI  22
BEACH          CLOUDY    30  30 100 NW28G33   29.86R WCI  15
CROSBY         CLOUDY    18  14  84 NE12      30.00R WCI   5
TIOGA          LGT SNOW  16  16 100 N20G29    29.95R WCI  -1
BISMARCK       CLOUDY    34  32  92 W5        29.72R WCI  29
GRAND FORKS    CLOUDY    21  16  81 NE12      29.98R WCI   9
FARGO          CLOUDY    25  16  69 SE7       29.91S WCI  17
BUFFALO SD     PTCLDY    36  27  70 NW22      29.75R WCI  25
RAPID CITY     CLOUDY    36  27  70 NW17G26   29.85R WCI  26
$$

REGIONAL REPORTS...WYOMING/IDAHO/WASHINGTON
CITY           SKY/WX    TMP DP  RH WIND       PRES   REMARKS
GILLETTE       CLOUDY    28  25  89 NW24G31   29.97R WCI  14
SHERIDAN       LGT SNOW  30  27  89 W22       30.05R VSB 3/4  WCI  17
CODY           CLOUDY    28  27  96 N13       30.05R VSB 3    WCI  17
YELLOWSTONE LA CLOUDY    28  27  96 CALM      30.03S
SALMON         CLOUDY    36  34  92 CALM      30.10F
MULLAN PASS    LGT SNOW  27  25  92 CALM      30.09S VSB 1 1/4
SAND POINT     CLOUDY    36  36 100 N3        30.18S
SPOKANE        LGT SNOW  34  34 100 N8        30.19S WCI  27
$$

REGIONAL REPORTS...ALBERTA
CITY           SKY/WX    TMP DP  RH WIND       PRES   REMARKS
CALGARY        CLOUDY    28  23  81 E3        30.08S
LETHBRIDGE     CLOUDY    32  25  75 E2        30.12R
MEDICINE HAT   CLOUDY    27  25  92 W7        30.13R WCI  19
EDMONTON       CLOUDY    18  12  77 N6        30.15S WCI  10
WATERTON GATE  N/A       28  19  69 N2         N/A
CARDSTON       N/A       30  23  75 SE1        N/A
MILK RIVER     N/A       28  25  89 E2         N/A
$$

REGIONAL REPORTS...SASKATCHEWAN
CITY           SKY/WX    TMP DP  RH WIND       PRES   REMARKS
SWIFT CURRENT  CLOUDY    16  14  92 N9        30.08R WCI   5
REGINA         MOCLDY    12   7  80 N13       30.09R WCI  -3
VAL MARIE      N/A       23  18  81 N17        N/A   WCI   9
ASSINIBOIA     N/A       16  14  92 N14        N/A   WCI   2
CORONACH       N/A       21  18  88 N15        N/A   WCI   7

$$




USA.gov is the U.S. government's official web portal to all federal, state and local government web resources and services.